Theta_e
315 315 318 322 319 317 318 321 326 325 326 324 324 313 314 314 312 311 310 314 316 315 320 316 315 317 316 316 316 313 319 323 322 318 318 313 316 311 312 323 319 321 324 325 333
315 315 313 321 320 317 317 321 325 325 325 325 323 314 314 314 316 316 312 312 318 313 312 315 314 317 314 314 316 318 322 320 317 315 316 313 313 313 315 320 321 325 326 328 332
314 316 315 321 320 317 316 318 325 325 324 323 323 316 313 314 317 318 313 311 313 313 312 314 317 317 316 315 316 317 321 317 316 314 312 313 313 310 314 317 318 323 327 329 332
312 316 315 320 320 317 316 317 324 325 323 323 321 320 316 316 325 321 319 312 312 313 312 316 318 323 317 319 315 321 317 316 318 312 311 312 312 312 312 315 311 317 327 330 331
313 316 316 318 320 318 316 317 323 325 323 323 324 324 322 321 321 319 317 312 312 312 312 311 319 320 325 319 315 316 316 313 313 311 310 310 311 312 310 309 315 322 328 331 332
310 316 318 320 319 318 316 317 319 324 323 323 324 323 320 326 321 314 321 314 312 311 310 312 313 314 318 317 319 316 313 313 313 311 312 313 311 310 312 311 322 326 328 330 331
311 316 320 320 319 318 316 317 319 324 323 323 322 320 318 321 320 314 321 314 313 311 309 311 312 314 312 314 313 313 316 315 320 312 313 311 314 311 310 314 322 326 325 326 329
316 315 319 319 319 317 316 319 323 323 323 323 319 317 318 317 313 314 320 317 314 313 312 312 313 313 315 314 317 317 317 320 316 312 312 314 324 313 309 312 317 324 324 325 325
317 317 320 319 318 317 318 319 323 322 321 317 314 315 318 312 313 315 320 318 317 316 315 314 312 312 315 318 320 321 320 320 319 311 311 311 314 312 308 310 311 319 323 324 324
315 318 319 318 318 317 319 321 322 319 316 314 313 317 307 309 312 315 319 318 314 313 314 315 311 311 314 322 329 325 322 322 320 318 310 310 310 310 309 307 310 310 320 323 325
311 319 318 317 316 316 319 321 320 319 314 317 315 310 308 309 314 313 318 316 315 316 318 312 317 316 315 319 314 319 324 324 316 319 314 315 316 316 311 306 306 306 311 321 323
307 311 317 317 316 317 318 320 319 315 318 312 312 307 306 311 313 311 317 317 317 317 317 317 318 313 308 312 313 317 321 321 317 311 312 313 311 310 311 309 309 308 306 312 319
306 308 317 316 316 318 319 318 316 315 315 314 311 307 308 309 312 312 311 314 317 315 317 317 316 312 312 311 312 310 311 311 314 308 307 307 311 309 310 306 306 304 305 306 310
305 306 308 316 317 318 317 316 315 313 316 313 314 311 307 308 311 308 309 312 313 317 317 317 315 314 314 314 311 313 310 309 309 310 310 306 312 309 311 314 306 307 305 305 304
305 304 305 315 318 319 316 314 312 314 323 312 312 308 307 311 310 310 307 308 311 312 314 318 312 317 316 314 312 313 309 310 310 311 310 308 307 306 305 311 314 309 306 305 304
306 303 304 309 317 317 315 314 314 318 320 312 309 309 309 307 307 307 308 305 306 309 309 309 307 315 315 312 311 307 310 310 307 311 317 311 308 308 308 307 307 306 306 307 306
305 302 303 305 315 314 311 312 315 322 308 310 311 309 311 307 308 313 310 308 310 311 310 308 306 305 307 309 309 312 316 319 320 319 318 303 307 314 307 305 305 306 306 305 305
303 304 302 304 307 312 311 317 321 312 311 307 309 309 310 309 307 309 310 309 305 307 309 313 314 305 304 307 310 314 318 317 318 314 313 302 309 311 305 306 303 301 300 300 300
302 304 303 305 305 311 314 320 320 312 306 308 310 310 307 307 307 309 311 311 308 304 310 310 311 304 304 304 309 308 317 310 308 296 305 305 304 304 303 303 302 301 301 302 302
302 305 304 304 305 309 316 319 307 305 307 309 312 310 308 309 307 309 310 309 309 305 305 306 309 305 305 305 305 308 308 311 309 312 308 307 304 309 306 304 303 302 302 303 303
302 306 306 303 305 311 316 317 305 304 307 306 306 307 308 309 307 309 310 308 306 303 304 304 307 307 305 306 306 305 308 306 308 308 311 309 309 301 304 305 305 304 301 301 303
301 306 302 303 304 307 315 309 306 306 305 305 304 304 307 308 306 310 308 310 306 304 307 304 305 307 306 305 303 304 306 309 310 308 305 307 311 302 301 300 300 301 300 301 302
299 300 302 305 308 308 311 310 306 306 305 306 305 305 305 307 306 306 306 304 306 306 307 304 306 303 308 307 305 305 304 307 307 305 307 307 310 305 307 307 302 302 302 302 302
298 305 303 305 303 308 311 311 309 305 305 304 303 304 305 306 305 305 305 304 305 306 309 308 306 307 309 307 306 308 305 303 306 307 310 307 308 308 305 303 302 302 300 302 302
297 300 299 306 305 308 309 309 309 307 306 304 304 305 305 306 306 305 304 306 304 308 308 306 307 305 306 305 307 307 307 304 305 308 309 309 307 307 304 304 303 302 302 303 303
299 299 298 300 301 305 308 308 311 309 306 306 306 305 303 305 306 305 306 305 306 306 306 304 305 305 304 307 305 305 306 307 307 307 306 307 306 307 303 300 302 303 302 302 303
295 295 296 301 303 306 307 307 309 308 308 305 304 304 304 304 303 304 305 306 306 308 307 305 302 300 308 307 306 309 308 307 307 306 307 308 309 304 302 302 304 303 302 303 304
Wind_Speed
33 35 43 48 47 41 49 43 37 34 32 29 30 26 19 18 14 13 6 8 7 14 18 14 11 14 10 3 3 3 3 3 4 5 1 1 2 3 1 5 1 3 3 1 22
32 44 43 49 48 45 49 46 40 35 33 30 32 32 19 17 8 3 4 11 14 16 17 17 4 8 4 2 2 4 3 8 4 3 2 1 3 5 3 3 3 2 1 10 26
32 44 49 55 49 49 44 48 40 39 35 32 31 33 26 16 6 7 20 13 16 19 14 12 15 4 4 2 2 4 5 5 4 3 1 1 2 3 5 3 7 8 7 17 20
34 45 56 49 52 52 46 46 45 41 37 34 33 31 29 20 13 7 25 17 14 18 15 13 3 6 5 5 3 4 5 6 4 4 3 3 0 1 6 5 2 7 14 19 20
31 51 52 47 50 50 47 47 46 42 40 37 36 33 27 8 6 5 24 23 18 17 19 7 5 5 7 6 4 2 3 6 7 4 4 3 3 3 7 8 3 10 15 18 20
35 56 52 52 50 49 48 46 47 44 42 39 37 34 10 14 5 7 23 23 19 18 13 13 9 5 5 5 6 4 5 2 4 3 0 1 1 3 6 4 5 8 13 13 20
40 51 54 57 52 50 50 44 45 48 44 39 37 31 7 10 10 8 22 25 17 13 7 4 10 6 7 5 2 4 4 3 3 1 4 5 3 4 4 1 4 8 7 8 14
38 50 51 53 49 51 48 46 47 48 45 38 36 20 5 9 8 14 20 24 15 10 11 10 8 6 4 4 5 4 1 2 1 6 2 6 11 7 5 5 9 8 8 9 10
36 45 55 56 48 46 45 48 49 45 40 40 27 9 5 14 11 18 30 26 17 10 10 8 7 3 4 8 2 2 3 6 3 6 3 4 3 6 4 6 8 8 8 9 9
7 52 56 55 48 48 48 50 48 47 40 26 16 6 6 8 15 18 22 30 9 10 5 4 3 4 1 8 8 6 4 0 4 2 1 2 6 9 4 6 10 7 7 10 12
12 47 56 53 55 49 50 49 13 8 24 8 15 5 11 17 22 9 22 18 8 5 6 1 4 14 15 8 5 6 3 6 0 4 3 6 11 16 11 5 8 10 9 12 14
12 10 48 52 50 50 52 19 23 14 13 1 17 6 6 17 7 7 27 8 10 12 7 4 10 5 8 9 6 7 4 2 3 3 4 6 10 13 10 9 11 13 10 13 8
11 10 33 46 46 52 46 20 28 36 7 9 5 6 7 6 6 13 12 7 17 16 16 7 5 7 6 4 8 4 7 5 4 3 2 4 10 10 10 9 9 8 9 7 13
8 10 2 45 41 47 12 35 45 20 5 6 6 6 5 8 5 3 8 7 3 20 11 6 2 14 9 8 6 6 7 6 4 2 3 1 6 6 8 18 10 11 9 12 12
5 10 12 33 22 22 25 49 35 8 8 13 4 13 5 10 15 7 4 4 12 10 8 10 11 14 15 8 8 5 7 8 5 4 4 4 3 7 5 13 18 16 11 14 14
5 10 11 10 12 29 49 46 18 6 5 7 6 9 15 3 2 7 5 5 4 7 4 6 1 11 8 7 13 8 6 8 5 3 5 5 6 6 6 8 6 7 14 16 15
2 7 13 15 1 51 53 19 7 7 8 7 7 13 20 6 6 21 14 9 8 8 6 3 3 2 6 7 4 7 13 2 2 3 8 3 6 21 6 5 6 9 10 11 12
3 10 13 12 10 50 27 11 7 10 8 4 8 17 11 14 3 7 12 9 7 5 8 10 6 9 5 7 9 10 9 5 6 5 3 1 9 9 7 10 7 8 9 7 9
7 8 7 10 11 33 13 17 9 10 11 11 17 19 4 7 9 9 19 22 11 8 7 5 4 3 4 5 11 5 9 6 5 2 2 5 7 10 9 10 7 10 8 12 10
3 6 5 11 10 4 12 18 6 8 15 23 10 11 10 21 7 12 20 18 9 8 3 6 4 1 1 5 2 12 11 5 3 5 5 5 5 9 3 8 10 9 10 14 9
2 3 4 10 3 4 16 11 7 7 20 8 7 8 12 18 9 17 22 2 10 8 5 6 4 1 7 9 10 4 9 5 6 6 6 2 6 8 9 10 9 10 7 8 7
0 3 7 15 2 3 13 10 7 12 2 6 6 6 13 20 4 18 14 13 16 18 17 6 5 4 8 3 4 7 9 17 5 6 2 2 10 6 8 7 7 9 9 8 7
1 1 8 16 3 4 3 4 4 10 5 4 5 4 6 13 5 4 11 7 19 20 20 8 3 3 5 4 1 7 7 13 9 3 8 6 10 5 16 20 8 8 9 7 7
1 2 3 2 2 5 7 9 6 4 4 6 7 10 10 8 2 11 7 5 11 13 10 14 4 10 14 3 8 8 7 6 10 5 17 8 20 25 5 7 6 7 9 8 7
2 1 2 1 3 6 5 7 8 7 3 7 4 13 12 6 15 6 6 4 5 6 6 7 11 2 2 4 5 7 11 12 12 22 12 23 19 28 9 11 10 6 4 5 8
2 2 2 1 2 7 7 9 11 5 8 15 12 15 7 9 12 7 10 7 7 5 12 4 8 7 2 3 5 1 10 19 22 21 13 21 13 15 4 6 8 11 7 9 10
3 2 2 2 2 3 5 7 14 5 5 3 11 9 6 6 9 9 5 11 12 15 15 12 7 4 13 6 5 5 21 12 9 11 17 17 35 7 7 9 11 11 8 13 15
Wind_Direction
245 242 237 208 206 207 210 209 205 199 201 193 191 166 169 147 146 152 201 192 169 171 184 153 139 123 91 71 83 164 86 187 211 161 317 50 189 1 98 114 234 160 172 331 158
252 234 232 203 204 204 208 206 202 196 197 192 187 169 173 166 118 292 179 197 190 175 166 148 133 118 76 99 52 117 148 209 166 169 177 325 180 173 142 111 232 165 38 147 153
266 232 224 210 202 203 207 209 203 193 194 189 185 178 173 159 72 238 207 197 187 181 169 166 141 98 86 102 174 185 180 191 198 143 22 36 103 175 131 217 214 196 161 165 165
268 232 220 217 196 200 204 207 201 192 190 189 184 180 178 151 197 204 205 198 183 181 155 143 91 109 126 165 184 162 184 159 144 150 112 332 24 256 194 230 304 189 156 168 178
280 222 218 214 192 196 202 203 200 190 190 184 182 178 158 185 234 133 184 183 180 179 164 136 135 131 158 167 143 242 195 184 144 145 108 136 283 244 257 244 3 141 154 179 187
282 216 214 203 190 191 198 202 201 190 188 185 180 173 153 187 171 157 182 176 175 173 157 159 171 167 115 171 172 212 173 179 138 128 83 44 340 74 286 156 143 164 180 185 192
273 209 192 194 188 191 197 198 196 189 184 182 175 160 168 176 185 171 178 178 173 168 130 162 163 139 134 129 162 131 158 24 295 120 176 152 320 220 282 322 202 201 193 193 198
200 195 191 190 188 190 193 188 179 183 181 173 169 150 161 174 153 170 165 177 162 133 137 135 155 108 108 99 39 110 72 162 207 157 238 138 260 259 224 179 238 227 205 197 202
186 195 186 187 189 188 183 177 174 173 165 161 157 150 153 164 168 165 171 168 157 107 103 112 105 110 86 113 56 350 172 205 284 215 137 180 265 238 158 208 244 227 231 214 209
209 191 183 182 185 186 176 171 170 150 145 137 146 101 171 194 147 154 168 159 134 115 65 58 86 113 109 163 196 187 192 287 206 264 189 121 269 275 238 199 232 259 228 228 222
12 184 180 180 184 184 166 157 160 162 153 158 175 122 130 136 136 139 153 138 120 109 137 34 128 199 190 200 112 143 155 201 280 245 232 230 246 247 245 225 248 237 232 228 230
303 331 169 178 179 180 171 186 165 151 145 67 143 79 136 140 117 147 153 139 153 171 116 100 210 165 143 159 152 140 132 202 293 269 184 293 261 261 243 234 229 234 222 232 221
293 297 173 175 177 174 183 142 148 143 114 147 126 126 152 111 120 164 151 141 167 172 185 161 154 140 136 147 159 156 148 160 210 295 221 286 277 242 242 231 236 237 226 232 228
264 281 100 176 175 172 166 144 146 137 109 160 174 161 129 131 78 133 149 127 142 190 156 212 193 169 173 185 157 185 166 146 117 47 261 107 285 265 248 237 222 236 220 230 230
267 284 284 176 175 176 153 147 157 135 162 152 138 149 147 156 132 213 153 75 150 146 142 193 159 177 204 162 164 202 149 175 146 82 359 207 283 270 271 245 235 224 225 230 225
256 284 279 268 166 161 149 146 122 155 179 157 143 157 147 121 116 132 132 57 119 109 62 168 160 179 185 159 171 133 76 37 43 82 270 212 204 240 219 228 237 225 228 225 228
248 242 265 288 292 146 140 142 139 191 153 146 165 169 156 135 107 162 170 157 154 132 167 144 170 177 129 113 116 129 152 145 162 202 238 293 172 247 255 269 242 238 246 229 227
258 190 259 276 307 153 155 162 172 138 152 165 143 142 157 139 98 143 148 174 232 127 137 163 210 165 182 159 155 164 172 164 170 201 245 141 222 246 236 254 244 243 252 286 267
222 171 241 267 276 158 161 182 194 162 147 135 134 152 125 162 132 147 189 191 185 179 129 132 212 36 152 137 136 180 202 159 85 81 52 217 286 295 257 278 276 251 263 261 249
164 148 248 232 259 193 183 185 120 127 124 140 145 173 161 175 130 176 178 199 187 176 111 187 123 12 90 96 38 183 149 162 200 205 245 245 258 233 319 260 270 283 248 244 266
192 119 217 209 243 231 191 174 110 152 137 136 146 153 170 180 162 180 185 212 161 150 113 157 101 351 141 207 164 135 186 192 162 180 190 251 249 196 223 226 236 262 295 289 259
323 140 2 154 178 250 178 145 120 160 113 118 109 112 163 165 118 185 189 184 172 158 184 187 115 149 205 258 190 185 190 199 185 220 292 126 269 178 231 240 235 275 280 270 253
56 23 31 154 198 173 142 112 120 152 141 117 116 122 129 162 152 178 173 221 167 167 174 174 176 77 9 343 206 213 198 202 214 62 200 161 256 156 240 262 235 252 271 286 264
102 153 73 215 169 156 156 166 112 124 98 92 109 112 117 155 280 181 153 179 176 173 141 162 159 191 202 158 131 187 171 185 193 210 236 227 254 255 281 268 270 245 257 269 244
17 85 57 184 165 170 140 142 133 144 152 127 81 159 155 144 190 163 132 101 80 181 143 158 219 165 17 144 144 172 191 182 194 221 205 240 229 260 214 258 278 263 253 244 246
124 127 25 37 74 150 178 175 178 133 144 188 155 167 168 155 180 141 134 141 169 158 165 178 240 158 223 119 140 184 211 201 211 221 222 241 267 255 240 220 257 252 252 258 244
97 69 95 359 73 141 178 156 201 142 37 135 131 144 205 159 123 146 143 151 155 170 183 173 135 115 235 148 91 309 226 206 205 207 208 231 244 160 233 224 239 245 226 249 249